Location: Holyhead Bay
(53.3667°N, 4.6667°W)
Time: 19:06:16
(UTC+00:00)

CSL-04 Debris - Pass Details

Date: 24 November 2020
Orbit: 826 x 849 km, 98.9° (Epoch: 16 January)

Event Time Altitude Azimuth Distance (km) Brightness Sun altitude
Exits shadow 19:17:56 29° 174° (S) 1,503 5.4 -27.2°
Maximum altitude 19:20:49 75° 255° (WSW) 884 4.3 -27.7°
Drops below altitude 10° 19:26:21 10° 341° (NNW) 2,486 6.9 -28.5°
Sets 19:28:44 0° 344° (NNW) 3,424 7.6 -28.8°
